Temperature
17 17 17 17 17 17 17 17 17 17 17 17 17 17 17 18 18 18 18 18 18 18 18 18 18 18 18 18 18 18 18 18 18 18 18 18 18 18 18 18 18 18 18
17 17 17 17 17 17 17 17 17 17 17 17 17 17 17 17 17 18 18 18 18 18 18 18 18 18 18 18 18 18 18 18 18 18 18 18 18 18 18 18 18 18 18
17 17 17 17 17 17 17 17 17 17 17 17 17 17 17 17 17 17 17 17 18 18 18 18 18 18 18 18 18 18 18 18 18 18 18 18 18 18 18 17 17 17 17
17 17 17 17 17 17 17 17 17 17 17 17 17 17 17 17 17 17 17 17 17 17 17 17 17 18 18 18 18 18 18 18 18 18 18 18 17 17 17 17 17 17 17
17 17 17 17 17 17 17 17 17 17 17 17 17 17 17 17 17 17 17 17 17 17 17 17 17 17 17 17 17 17 17 17 17 17 17 17 17 17 17 17 17 17 17
17 17 17 17 17 17 17 17 17 17 17 17 17 17 17 17 17 17 17 17 17 17 17 17 17 17 17 17 17 17 17 17 17 17 17 17 17 17 17 17 17 17 17
17 17 17 17 17 17 17 17 17 17 17 17 17 17 17 17 17 17 17 17 17 17 17 17 17 17 17 17 17 17 17 17 17 17 17 17 17 17 17 17 17 17 17
17 17 17 17 17 17 16 16 16 17 17 17 17 17 17 17 17 17 17 17 17 17 17 17 17 17 17 17 17 17 17 17 17 17 17 17 17 17 17 17 17 17 17
17 17 17 17 17 16 16 16 16 16 17 17 16 16 16 16 16 16 16 17 17 17 17 17 17 17 17 16 17 17 17 17 17 17 16 16 16 17 16 17 17 16 16
17 17 17 17 17 17 16 16 16 16 16 16 16 16 16 16 16 16 16 16 16 16 16 16 16 16 16 16 16 16 16 16 16 16 16 16 16 16 16 16 16 16 16
17 17 17 17 17 17 16 16 16 16 16 16 16 16 16 16 16 16 16 16 16 16 16 16 16 16 16 16 16 16 16 16 16 16 16 16 16 16 16 16 16 16 16
17 17 17 17 17 17 16 16 16 16 16 16 16 16 16 16 16 16 16 16 16 16 16 16 16 16 16 16 16 16 16 16 16 16 16 16 16 16 16 16 16 16 16
17 17 17 17 17 16 16 16 16 16 16 16 16 16 16 16 16 16 16 16 16 16 16 16 16 16 16 16 16 16 16 16 16 16 15 16 16 15 15 15 15 15 15
17 17 17 17 17 16 16 16 16 16 16 16 16 16 16 16 16 16 16 16 16 16 16 16 16 16 16 15 16 16 16 16 16 15 15 15 15 15 15 15 15 15 15
17 17 17 17 17 16 16 16 16 16 16 16 16 16 16 16 16 16 16 16 16 16 16 15 15 15 15 15 15 15 15 15 15 15 15 15 15 15 15 15 15 15 15
17 17 17 17 17 17 16 16 16 16 16 16 16 16 16 15 15 15 15 15 15 15 15 15 15 15 15 15 15 15 15 15 15 15 15 15 15 15 15 15 15 15 15
18 17 17 17 17 16 16 16 16 16 16 16 16 16 15 15 15 15 15 15 15 15 15 15 15 15 15 15 15 15 15 15 14 15 15 15 15 15 15 15 15 15 15
18 17 17 17 17 17 16 16 16 16 16 16 15 15 15 15 15 15 15 15 15 15 15 15 15 15 15 14 14 14 14 14 14 14 14 14 14 14 14 14 14 14 15
18 18 17 17 17 17 16 16 16 16 16 15 15 15 15 15 15 15 15 15 15 15 14 14 14 14 14 14 14 14 14 14 14 14 14 14 14 14 14 14 14 14 14
18 17 17 17 17 16 16 16 16 15 15 15 15 15 15 15 15 15 15 14 14 14 14 14 14 14 14 14 14 14 14 14 14 14 14 14 14 14 14 14 14 14 14
18 18 17 17 17 16 16 16 16 16 15 15 15 15 15 15 15 14 14 14 14 14 14 14 14 14 14 14 14 14 14 14 14 14 13 13 13 13 13 13 14 14 14
18 18 17 17 17 16 16 16 16 15 15 15 15 15 15 15 15 15 14 14 14 14 14 14 14 14 14 14 14 14 13 13 13 13 13 13 13 13 13 13 13 13 13
18 18 17 17 17 16 16 16 16 15 15 15 15 15 15 15 14 14 14 14 14 14 14 14 14 14 14 14 14 14 14 13 13 13 13 13 13 13 13 13 13 13 13
18 18 17 17 17 16 16 16 16 16 15 15 15 15 15 14 14 14 14 14 14 14 14 14 14 13 13 13 13 13 13 13 13 13 13 13 13 13 13 13 13 13 13
18 18 18 17 17 16 16 16 16 15 15 15 15 15 14 14 14 14 14 14 14 14 14 13 13 13 13 13 13 13 13 13 13 13 13 13 13 13 13 13 13 13 12
18 18 18 17 17 16 16 16 16 15 15 15 15 14 14 14 14 14 14 14 14 14 13 13 13 13 13 13 13 13 13 13 13 13 13 13 13 12 12 12 12 12 12
Wind_Speed
3 4 3 0 2 3 4 5 6 6 6 5 6 7 7 7 7 7 7 7 7 7 8 7 8 8 9 9 9 9 9 9 8 8 8 8 8 8 7 7 7 6 8
2 2 2 1 2 3 3 4 5 6 6 6 6 7 7 7 7 7 7 7 7 8 8 8 9 9 9 9 9 9 9 9 9 8 8 6 7 7 7 7 7 6 7
1 1 1 2 3 3 4 5 5 6 7 7 6 6 6 7 7 7 7 7 8 8 8 9 9 9 9 9 9 9 9 9 9 9 7 6 5 6 6 6 6 6 6
2 2 2 3 3 4 4 5 5 6 6 6 6 6 6 6 6 7 7 7 8 8 8 9 9 9 9 9 9 10 10 10 9 9 7 6 5 6 6 6 6 5 5
2 1 2 4 4 4 4 5 6 6 6 6 7 6 6 6 6 7 7 8 8 8 8 8 9 9 9 10 10 10 10 10 10 8 7 6 5 6 6 6 6 5 5
2 1 1 3 4 4 5 5 5 6 6 7 7 7 7 7 7 7 8 8 8 8 8 8 9 9 9 10 10 10 10 10 9 8 6 5 5 6 6 6 6 6 6
2 1 1 3 3 4 4 5 5 5 6 6 7 7 7 7 7 7 7 8 8 8 9 9 9 9 9 9 10 9 10 10 9 7 6 5 5 7 7 6 6 6 7
3 2 2 2 3 4 4 5 5 5 5 6 6 7 7 7 8 7 7 8 8 8 9 9 9 9 9 9 10 10 10 9 8 7 6 5 6 7 8 7 7 7 7
2 2 2 3 3 3 4 4 5 6 6 6 7 7 8 8 8 8 8 8 8 9 9 9 9 9 9 9 10 10 10 10 8 6 6 5 7 8 8 8 8 8 7
2 2 2 3 3 3 3 3 5 5 6 6 7 7 7 8 8 8 8 8 9 9 9 9 9 10 9 10 10 11 10 9 8 6 5 6 7 8 8 8 9 9 9
1 1 2 2 2 2 2 3 5 6 6 7 7 8 7 7 7 7 8 8 8 9 9 10 10 10 10 11 11 10 9 7 7 5 5 7 8 8 8 9 10 10 10
1 0 1 1 1 2 2 4 4 5 5 6 6 6 7 6 6 7 7 8 8 9 10 11 11 11 10 9 10 10 8 7 6 5 6 8 8 9 9 10 10 10 9
2 1 1 1 1 2 2 2 3 4 4 5 5 6 6 6 6 7 7 7 8 9 9 10 10 10 9 8 8 8 8 7 6 6 7 8 8 9 10 10 10 9 9
2 2 1 2 2 2 3 2 2 2 3 3 4 5 5 4 4 5 5 6 7 7 8 8 7 8 9 9 8 8 8 7 7 7 8 9 9 9 9 9 9 9 8
3 2 2 3 3 2 3 2 2 2 2 3 4 4 5 4 3 4 4 5 6 7 7 6 6 6 6 7 7 8 7 8 8 8 8 10 10 10 9 9 8 8 8
4 3 2 3 3 3 2 2 2 2 2 3 3 4 5 5 4 3 4 4 5 6 6 6 6 5 5 5 6 7 7 7 8 9 9 9 10 10 10 9 8 8 8
4 3 3 4 3 3 3 2 3 3 3 3 3 4 5 5 5 4 3 3 4 5 7 7 7 6 5 5 5 5 6 7 7 8 9 9 9 10 11 10 10 9 8
4 3 3 3 4 4 3 3 3 3 4 4 4 4 5 6 6 5 3 3 4 5 5 4 4 5 5 4 4 4 4 5 6 7 8 9 9 9 10 11 10 9 9
5 5 4 3 4 3 3 3 4 3 3 3 4 4 4 5 6 5 3 3 5 4 3 4 3 4 4 4 4 4 4 4 4 6 6 8 8 8 8 9 10 10 9
4 5 4 4 4 4 3 3 3 3 3 3 3 3 4 4 5 5 4 4 4 4 3 3 4 3 3 3 4 4 4 4 4 4 4 6 7 7 8 8 8 8 9
5 5 5 5 4 4 3 2 2 1 1 1 2 3 3 4 4 4 3 3 3 3 3 4 4 4 3 2 3 3 4 4 4 4 4 4 5 6 7 7 8 8 7
6 6 5 5 5 4 3 2 2 2 1 1 2 3 3 3 4 4 3 3 3 3 3 3 3 2 2 2 2 2 2 3 3 3 3 3 3 4 5 6 6 6 7
7 7 7 6 5 5 4 3 3 3 3 2 2 1 2 2 3 3 3 3 3 3 3 3 4 4 2 1 1 3 2 1 1 2 2 2 3 2 2 4 5 5 5
7 6 6 6 5 5 5 5 5 3 2 2 1 0 1 2 2 3 3 3 2 2 3 3 3 3 3 2 1 1 1 3 2 1 2 2 2 2 2 2 3 3 4
7 7 6 6 5 5 5 6 5 3 2 1 1 1 1 1 1 2 2 2 2 2 3 2 2 3 2 3 2 2 2 1 1 2 1 2 2 2 1 1 1 2 3
5 6 6 6 5 5 6 5 6 5 4 3 2 2 1 0 0 0 1 1 2 2 2 2 2 3 2 2 2 2 2 2 2 3 2 1 1 2 2 1 1 1 1
Wind_Direction
263 257 272 79 66 65 60 54 57 59 60 67 76 80 84 86 92 94 93 92 92 93 94 92 89 90 93 92 90 90 91 95 102 102 102 104 104 105 111 113 113 111 110
232 230 226 126 97 80 69 64 59 61 61 70 78 77 79 81 88 96 94 91 92 95 95 92 87 88 91 92 91 92 90 90 94 93 92 92 100 108 111 113 114 113 111
172 190 190 117 99 86 72 66 61 65 64 69 75 74 78 84 89 93 94 93 91 93 95 93 90 88 89 90 90 90 88 87 90 87 79 70 86 103 109 110 109 110 113
146 156 140 115 99 86 76 69 64 66 65 66 71 74 77 84 89 93 92 91 90 93 93 93 95 92 92 93 92 88 85 85 85 82 70 63 73 97 102 105 107 108 109
122 130 133 121 106 90 80 76 68 65 66 65 70 74 78 85 92 92 90 88 87 91 93 94 97 95 95 94 91 88 87 85 82 75 68 62 69 96 102 100 101 104 104
118 109 130 119 108 96 81 78 72 68 65 67 71 73 80 87 91 93 92 90 89 90 91 94 96 95 95 95 90 88 86 82 74 69 65 62 69 92 99 96 97 97 101
134 116 114 117 104 93 82 76 69 65 65 67 70 74 81 87 92 93 95 92 90 88 88 92 94 93 91 90 88 86 84 80 73 67 61 63 79 86 89 91 96 95 95
143 130 91 102 100 88 80 79 75 70 68 68 69 73 77 81 83 86 92 94 95 92 92 94 95 94 91 88 85 84 83 78 71 65 59 60 84 87 84 85 95 95 91
99 95 73 60 69 78 75 74 74 71 68 69 73 72 70 73 76 80 85 92 95 94 95 95 95 92 88 87 84 82 81 74 66 60 60 64 80 81 80 80 88 94 88
77 68 58 49 52 51 56 70 71 69 66 66 70 74 71 68 65 67 72 81 90 92 92 91 91 88 84 83 83 79 76 70 62 56 54 69 78 79 78 81 84 84 83
84 38 57 47 48 64 64 65 58 61 61 60 62 65 61 53 50 50 60 75 82 88 90 90 88 86 81 81 79 75 71 64 58 51 55 71 76 79 82 85 84 82 80
204 251 91 94 69 60 71 64 56 55 53 54 59 59 56 53 52 52 58 72 76 82 86 85 83 79 73 69 69 64 60 59 54 47 60 68 73 78 82 82 82 80 80
201 199 138 139 104 92 89 73 64 65 57 55 59 62 64 60 55 51 53 52 60 72 73 74 73 72 71 69 68 63 58 56 50 47 55 64 69 77 80 79 79 78 79
167 178 151 124 105 95 97 85 78 78 75 70 65 68 72 67 59 55 58 54 59 73 77 75 76 75 72 69 70 67 59 56 50 46 51 59 65 72 76 78 78 77 75
171 182 159 142 129 117 101 95 91 88 91 86 82 76 89 86 76 67 64 66 67 78 85 84 81 77 74 67 67 67 60 56 52 49 48 54 58 63 71 74 75 75 76
183 183 150 140 137 118 111 110 107 102 97 91 89 90 100 101 95 84 79 75 71 80 89 91 90 85 75 72 63 61 59 56 51 51 49 48 51 57 61 64 67 68 72
179 167 158 152 132 125 124 117 104 104 107 96 90 97 109 112 108 101 95 88 83 92 94 91 84 81 76 69 57 53 55 55 55 53 50 48 46 49 53 56 61 63 64
163 157 163 149 133 130 125 111 100 101 102 98 95 95 107 115 117 109 105 101 99 100 99 97 88 83 72 66 57 46 47 51 52 53 51 49 48 45 44 49 53 58 60
173 160 153 139 132 131 119 100 93 91 86 90 97 94 104 112 115 111 109 106 106 98 94 107 90 97 93 80 71 54 44 43 41 53 50 47 46 46 45 45 47 54 56
166 157 151 140 126 117 101 86 75 68 60 69 83 96 107 112 117 114 109 107 108 103 90 96 100 85 92 95 80 58 42 37 42 45 42 45 45 45 46 47 45 46 48
158 157 158 148 143 129 114 115 109 101 65 55 63 83 107 120 124 117 115 115 116 119 126 125 116 98 80 85 77 47 29 34 42 40 37 42 41 42 47 46 45 43 37
175 173 168 166 163 163 153 140 132 124 100 78 46 58 82 116 133 138 133 141 135 129 125 131 125 112 86 70 104 90 26 4 10 25 23 34 32 38 43 44 46 43 40
181 183 182 178 174 173 150 112 89 71 56 48 39 34 36 93 117 129 139 140 144 146 154 156 145 138 144 68 84 133 137 216 315 347 8 22 18 25 19 30 39 37 37
193 185 180 175 172 171 157 151 146 147 162 196 183 157 59 93 107 118 131 140 147 152 160 171 155 154 149 154 83 71 132 153 148 336 336 349 4 15 360 9 21 29 31
186 179 178 171 173 171 168 168 161 158 170 147 120 111 84 59 90 115 143 145 152 161 168 165 156 156 156 163 167 149 108 88 126 154 259 318 341 336 338 333 352 11 18
177 171 170 173 180 174 172 172 173 171 166 154 162 161 168 339 2 99 152 154 162 164 174 176 167 166 171 167 171 168 166 167 176 164 192 236 277 292 301 315 319 325 355
Height
1521 1520 1519 1518 1518 1517 1517 1517 1517 1516 1516 1515 1515 1515 1515 1515 1515 1515 1516 1516 1516 1517 1517 1518 1518 1519 1519 1520 1520 1521 1522 1523 1524 1525 1525 1526 1527 1528 1528 1529 1530 1531 1531
1522 1520 1520 1519 1518 1518 1518 1517 1517 1517 1516 1516 1515 1515 1515 1516 1516 1516 1516 1517 1517 1518 1518 1519 1520 1520 1520 1521 1522 1522 1523 1524 1525 1525 1526 1527 1528 1528 1529 1530 1530 1531 1532
1522 1521 1520 1520 1519 1519 1519 1518 1518 1517 1517 1516 1516 1516 1516 1516 1517 1517 1517 1518 1518 1519 1520 1520 1521 1521 1522 1522 1523 1523 1524 1525 1526 1526 1527 1528 1528 1529 1530 1531 1531 1532 1533
1523 1522 1521 1521 1520 1520 1520 1519 1519 1518 1517 1517 1516 1516 1516 1517 1517 1518 1518 1519 1520 1520 1521 1521 1522 1523 1523 1524 1524 1525 1525 1526 1527 1527 1528 1529 1529 1530 1530 1531 1532 1532 1533
1523 1523 1522 1522 1521 1521 1521 1520 1520 1519 1518 1517 1516 1516 1517 1517 1518 1519 1520 1520 1521 1521 1522 1523 1523 1524 1524 1525 1525 1526 1527 1527 1528 1528 1529 1529 1530 1530 1531 1531 1532 1532 1533
1524 1524 1524 1523 1523 1522 1522 1521 1521 1520 1520 1518 1518 1518 1518 1519 1519 1520 1521 1521 1522 1523 1523 1524 1525 1525 1526 1526 1527 1527 1528 1528 1529 1529 1530 1530 1530 1531 1531 1532 1532 1533 1533
1526 1525 1525 1525 1524 1524 1523 1523 1522 1522 1521 1520 1520 1520 1520 1520 1521 1521 1522 1523 1523 1524 1525 1526 1526 1527 1527 1528 1528 1528 1529 1530 1530 1530 1531 1531 1531 1532 1532 1532 1532 1533 1534
1527 1526 1526 1526 1526 1525 1525 1524 1524 1523 1523 1522 1521 1522 1522 1522 1522 1523 1523 1524 1525 1526 1526 1527 1527 1528 1528 1529 1529 1530 1530 1531 1531 1531 1532 1532 1532 1532 1533 1533 1533 1533 1534
1528 1528 1528 1527 1527 1527 1526 1526 1525 1525 1525 1524 1524 1523 1524 1524 1524 1525 1525 1526 1526 1527 1528 1528 1529 1529 1530 1530 1531 1531 1531 1532 1532 1532 1533 1533 1533 1533 1533 1533 1533 1533 1534
1529 1529 1529 1528 1528 1528 1527 1527 1527 1526 1526 1526 1526 1526 1526 1526 1526 1527 1527 1527 1528 1528 1529 1530 1530 1531 1531 1532 1532 1532 1533 1533 1533 1534 1534 1534 1534 1534 1534 1534 1534 1534 1535
1529 1529 1529 1529 1529 1529 1529 1528 1528 1528 1528 1528 1527 1528 1528 1528 1528 1528 1528 1529 1529 1530 1531 1531 1531 1532 1532 1533 1533 1534 1534 1534 1534 1535 1535 1535 1535 1535 1535 1535 1535 1536 1536
1530 1530 1530 1530 1530 1530 1530 1530 1529 1530 1529 1529 1529 1529 1529 1529 1530 1530 1530 1530 1531 1531 1532 1532 1533 1533 1534 1534 1535 1535 1535 1535 1535 1536 1536 1536 1536 1536 1536 1536 1536 1537 1537
1530 1531 1531 1531 1531 1531 1531 1531 1531 1531 1531 1531 1531 1531 1531 1531 1531 1531 1531 1531 1532 1532 1533 1533 1534 1534 1535 1535 1536 1536 1537 1537 1536 1537 1537 1537 1537 1537 1537 1537 1537 1538 1538
1531 1531 1531 1532 1532 1532 1532 1532 1532 1532 1532 1532 1532 1532 1532 1532 1532 1533 1533 1533 1533 1534 1534 1534 1535 1535 1536 1537 1537 1537 1538 1538 1538 1538 1538 1538 1538 1538 1538 1538 1538 1538 1538
1531 1531 1532 1532 1532 1532 1533 1533 1533 1533 1533 1533 1533 1533 1533 1533 1534 1534 1534 1534 1535 1535 1535 1536 1536 1536 1537 1538 1538 1538 1539 1539 1539 1539 1539 1539 1540 1540 1539 1539 1539 1539 1539
1531 1532 1532 1532 1533 1533 1533 1533 1533 1533 1533 1534 1534 1534 1534 1534 1534 1535 1535 1535 1536 1536 1537 1537 1537 1537 1538 1539 1539 1539 1540 1540 1540 1540 1540 1540 1540 1540 1540 1540 1540 1540 1540
1531 1532 1532 1533 1533 1533 1533 1534 1534 1534 1534 1534 1534 1535 1535 1535 1535 1535 1536 1536 1537 1537 1537 1538 1538 1538 1539 1539 1539 1540 1540 1541 1541 1541 1541 1541 1541 1541 1541 1541 1541 1540 1540
1531 1531 1532 1533 1533 1533 1534 1534 1534 1534 1534 1535 1535 1535 1535 1535 1536 1536 1536 1537 1537 1538 1538 1538 1539 1539 1539 1540 1540 1540 1541 1541 1541 1542 1542 1542 1541 1541 1541 1541 1541 1541 1541
1530 1531 1532 1533 1533 1534 1534 1534 1534 1535 1535 1535 1535 1536 1536 1536 1536 1536 1537 1537 1538 1538 1539 1539 1539 1540 1540 1540 1540 1541 1541 1541 1542 1542 1542 1542 1542 1542 1542 1542 1542 1541 1541
1530 1531 1532 1533 1533 1534 1534 1534 1534 1535 1535 1535 1536 1536 1536 1536 1537 1537 1537 1537 1538 1538 1539 1539 1540 1540 1540 1540 1541 1541 1541 1542 1542 1542 1542 1542 1542 1542 1542 1542 1542 1542 1541
1529 1530 1531 1532 1533 1533 1533 1534 1534 1534 1535 1535 1536 1536 1536 1536 1537 1537 1537 1538 1538 1538 1539 1539 1540 1540 1541 1541 1541 1541 1542 1542 1542 1542 1543 1543 1543 1543 1543 1542 1542 1542 1542
1527 1528 1530 1531 1532 1533 1533 1534 1534 1535 1535 1535 1535 1536 1536 1536 1537 1537 1537 1537 1538 1538 1539 1539 1540 1540 1540 1541 1542 1541 1542 1543 1542 1543 1543 1543 1543 1543 1543 1543 1542 1542 1542
1525 1527 1528 1530 1531 1532 1533 1534 1534 1534 1535 1535 1535 1535 1536 1536 1536 1537 1537 1537 1537 1538 1538 1539 1539 1540 1540 1541 1541 1542 1542 1542 1542 1543 1542 1543 1543 1543 1543 1542 1542 1542 1542
1523 1525 1527 1528 1530 1531 1532 1533 1533 1533 1534 1534 1534 1535 1535 1536 1536 1536 1536 1537 1537 1537 1538 1538 1539 1539 1540 1540 1541 1541 1542 1542 1542 1542 1542 1542 1542 1542 1542 1542 1542 1541 1541
1521 1523 1525 1527 1528 1530 1531 1532 1532 1533 1533 1534 1534 1534 1535 1535 1535 1535 1535 1536 1536 1536 1537 1537 1538 1539 1539 1539 1540 1540 1540 1541 1541 1541 1541 1541 1541 1541 1541 1541 1541 1541 1541
1520 1522 1523 1525 1527 1528 1529 1530 1531 1532 1532 1532 1533 1533 1534 1534 1534 1534 1535 1535 1535 1535 1536 1536 1537 1537 1538 1538 1539 1539 1539 1539 1539 1539 1539 1540 1540 1540 1540 1540 1540 1540 1540